Starlink 34067

operational
NORAD ID: 64115 Int'l Des: 2025-110 Owner: SPXS Country: US Constellation: starlink
LEOCIRCULAR

Über Starlink 34067

Beschreibung wird geladen...

Live-Position

3D-Globus wird geladen...

Nächste Überflüge

Höhenverlauf

Altitude vs Time

uPlot chart will show altitude changes over time

Zweizeiliger Elementsatz

1 64115U 25110V 25260.97541132 .00052464 00000-0 13108-2 0 9999
2 64115 53.1579 112.2331 0001468 81.9241 278.1931 15.39660979 19394
Epoch: 17. Sept. 2025 • Age: 27 hours

Aktueller Status

Höhe 448.3 km
Geschwindigkeit 7.65 km/s
Subsatellitenpunkt 33.23°N, 106.79°E
Startdatum 23. Mai 2025
Alter 0.3 years
Typ internet

Technische Details

Klassifizierung Payload
Masse 575.00 kg
Trockenmasse 530.00 kg
Gesamtmasse 575.00 kg
Länge 0.30 m
Durchmesser 4.10 m
Spannweite 29.00 m
Form Box + pan
Hersteller SPXS
Bus-Typ Starlink V2MO
Phasenstatus In Orbit
Besitzer/Staat SPXS/US

Große Konstellationen

Loading constellations...